La Vergne, TN

5:54 PM CST on December 02, 2016 (GMT -0600)
Smyrna

Weather History for KMQY - June, 2012

Change the Weather History Date:

Monday, June 4, 2012

  Actual Average Record
Temperature  
Mean Temperature 78 °F -  
Max Temperature 90 °F 78 °F 99 °F (2011)
Min Temperature 66 °F 63 °F 56 °F (2013)
Cooling Degree Days 13    
Growing Degree Days 28 (Base 50)    
Moisture  
Dew Point 65 °F    
Average Humidity 70    
Maximum Humidity 100    
Minimum Humidity 41    
Precipitation  
Precipitation 0.06 in - - ()
Sea Level Pressure  
Sea Level Pressure 29.82 in    
Wind  
Wind Speed 6 mph (West)    
Max Wind Speed 13 mph    
Max Gust Speed -    
Visibility 10 miles    
Events Rain , Thunderstorm    
Averages and records for this station are not official NWS values.
T = Trace of Precipitation, MM = Missing Value Source: NWS Daily Summary

Daily Weather History Graph

Daily Weather History Graph

Search for Another Location

Airport or City:

Trip Planner

Search our weather history database for the weather conditions in past years. The results will help you decide how hot, cold, wet, or windy it might be!

Date:

Astronomy

Jun. 04, 2012 Rise Set
Actual Time 5:29 AM CDT 7:59 PM CDT
Civil Twilight 4:59 AM CDT 8:29 PM CDT
Nautical Twilight 4:22 AM CDT 9:06 PM CDT
Astronomical Twilight 3:42 AM CDT 9:47 PM CDT
Moon 8:29 PM CDT (6/4) 5:35 AM CDT (6/4)
Length of Visible Light 15h 29m
Length of Day
14h 29m
Full, 100% of the Moon is Illuminated
Jun 4
Full
Jun 11
Last Quarter
Jun 19
New
Jun 26
First Quarter
Jul 3
Full

Hourly Weather History & Observations

Time (CDT) Temp. Heat Index Dew Point Humidity Pressure Visibility Wind Dir Wind Speed Gust Speed Precip Events Conditions
12:56 AM 70.0 °F - 66.9 °F 90% 29.88 in 10.0 mi West 12.7 mph - 0.03 in Rain , Thunderstorm Light Thunderstorms and Rain
1:56 AM 68.9 °F - 65.8 °F 90% 29.86 in 10.0 mi Calm Calm - 0.03 in Rain , Thunderstorm Light Thunderstorms and Rain
2:16 AM 69.8 °F - 66.2 °F 88% 29.87 in 10.0 mi NNW 3.5 mph - 0.00 in Rain Light Rain
2:56 AM 68.0 °F - 66.9 °F 96% 29.83 in 10.0 mi SW 4.6 mph - 0.00 in Rain Light Rain
3:56 AM 66.9 °F - 66.9 °F 100% 29.84 in 10.0 mi Calm Calm - 0.00 in   Clear
5:56 AM 66.9 °F - 66.9 °F 100% 29.83 in 5.0 mi SSW 4.6 mph - N/A   Clear
6:56 AM 66.9 °F - 66.9 °F 100% 29.85 in 8.0 mi Calm Calm - N/A   Clear
7:56 AM 68.9 °F - 68.9 °F 100% 29.86 in 10.0 mi West 4.6 mph - 0.00 in   Partly Cloudy
8:56 AM 73.9 °F - 66.9 °F 79% 29.88 in 10.0 mi WNW 3.5 mph - N/A   Partly Cloudy
9:56 AM 77.0 °F - 66.9 °F 71% 29.87 in 10.0 mi Variable 4.6 mph - N/A   Partly Cloudy
10:56 AM 82.9 °F 85.0 °F 65.8 °F 56% 29.87 in 10.0 mi Calm Calm - N/A   Partly Cloudy
11:56 AM 86.0 °F 88.2 °F 65.8 °F 51% 29.86 in 10.0 mi Variable 4.6 mph - N/A   Scattered Clouds
12:56 PM 88.0 °F 89.0 °F 63.9 °F 44% 29.86 in 10.0 mi Variable 6.9 mph - N/A   Scattered Clouds
1:56 PM 86.9 °F 88.6 °F 64.9 °F 48% 29.83 in 10.0 mi West 9.2 mph - N/A   Scattered Clouds
2:56 PM 90.9 °F 92.3 °F 63.9 °F 41% 29.80 in 10.0 mi Variable 4.6 mph - N/A   Partly Cloudy
3:56 PM 88.9 °F 90.0 °F 63.9 °F 43% 29.78 in 10.0 mi Variable 5.8 mph - N/A   Scattered Clouds
4:56 PM 86.9 °F 88.1 °F 63.9 °F 46% 29.77 in 10.0 mi WNW 10.4 mph - N/A   Scattered Clouds
5:56 PM 86.0 °F 87.1 °F 63.9 °F 47% 29.75 in 10.0 mi WSW 8.1 mph - N/A   Partly Cloudy
6:56 PM 83.8 °F 85.6 °F 64.9 °F 53% 29.75 in 10.0 mi WSW 6.9 mph - N/A   Scattered Clouds
7:56 PM 79.0 °F - 65.8 °F 64% 29.77 in 10.0 mi West 6.9 mph - N/A   Partly Cloudy
8:56 PM 77.0 °F - 65.8 °F 68% 29.75 in 10.0 mi WSW 8.1 mph - N/A   Partly Cloudy
9:56 PM 73.9 °F - 65.8 °F 76% 29.77 in 10.0 mi West 5.8 mph - N/A   Clear
10:56 PM 74.8 °F - 66.9 °F 76% 29.77 in 10.0 mi NNW 5.8 mph - N/A   Scattered Clouds
11:29 PM 75.2 °F - 62.6 °F 65% 29.81 in 10.0 mi NE 10.4 mph - N/A   Overcast
11:56 PM 73.9 °F - 59.9 °F 61% 29.79 in 10.0 mi NE 10.4 mph - N/A   Mostly Cloudy